Location: Campillo
(40.8621°N, 4.2488°W)
Time: 12:13:56
(UTC+00:00)

Cosmos 1777 Rocket - Pass Details

Date: 11 May 2021
Orbit: 758 x 776 km, 74.0° (Epoch: 13 June)

Event Time Altitude Azimuth Distance (km) Brightness Sun altitude
Exits shadow 20:43:31 - 179° (S) 2,615 6.4 -13.6°
Reaches altitude 10° 20:44:24 10° 176° (S) 2,280 6.1 -13.7°
Maximum altitude 20:49:21 48° 104° (ESE) 989 4.2 -14.4°
Drops below altitude 10° 20:54:20 10° 31° (NNE) 2,294 6.6 -15.1°
Sets 20:56:46 0° 26° (NNE) 3,225 7.4 -15.5°
